{"data":{"norad_id":68196,"epoch":"2026-05-25T00:56:47.753376Z","epoch_age_seconds":65421,"freshness":"FRESH","line1":"1 68196U 26051A   26145.03944159  .00000305  00000+0  10697-3 0  9990","line2":"2 68196 141.9852 215.8035 0001090 289.5241  70.5361 13.83263222  9785","mean_motion":13.83263222,"eccentricity":0.000109,"inclination_deg":141.9852,"raan_deg":215.8035,"arg_perigee_deg":289.5241,"mean_anomaly_deg":70.5361,"bstar":0.00010697,"rev_number":978,"period_min":104.1016617154,"perigee_km":951.5362374843,"apogee_km":953.13428043675,"semimajor_km":7330.4722589605,"source":"CELESTRAK","updated_at":"2026-05-25T13:38:07.618860Z"}}